Back to catalog

STARLINK-34290

AliveCommunicationsVLEO
NORAD 64929·PAYLOAD·🇺🇸 United States

Launched Jul 26, 2025 from Cape Canaveral Space Force Station

Loading…

Next Passes (next 24 hours)

TLE

FreshSource: CelesTrak SupGP

Epoch: Sep 15, 2026, 03:55 UTC

1 64929C 25157AB  26258.16368056 -.00019781  00000+0 -58455-3 0  2583
2 64929  53.1582 182.9539 0001380  83.9578 149.0409 15.34393266    15

Track STARLINK-34290 in real time with AllMySat

Download on the App Store